Tracking 25709 objects as of 23-May-2022
HD Live streaming from Space Station
objects crossing your sky now

COSMOS 1375 DEB

Track COSMOS 1375 DEB now!
10-day predictions


NORAD ID: 17807
Int'l Code: 1982-055AZ
Perigee: 927.2 km
Apogee: 1,019.7 km
Inclination: 65.8 °
Period: 104.4 minutes
Semi major axis: 7344 km
RCS: 0.033 m2 (small)
Launch date: June 6, 1982
Source: Commonwealth of Independent States (former USSR) (CIS)
Launch site: PLESETSK MISSILE AND SPACE COMPLEX (PKMTR)

Note: This is SATELLITE DEBRIS
aabbcc
Your satellite tracking list
Your tracking list is empty




NASA's NSSDC Master Catalog

Two Line Element Set (TLE):
1 17807U 82055AZ  22143.54195028  .00000555  00000-0  61016-3 0  9991
2 17807  65.8313 210.1071 0062993 328.9533 150.4848 13.79322079834362
Source of the keplerian elements: AFSPC